Pendleton, OR

8:58 PM PDT on June 23, 2017 (GMT -0700)
Eastern Oreg Regional At Pendleton

Weather History for KPDT - June, 2012

Change the Weather History Date:

Monday, June 18, 2012

  Actual Average Record
Temperature  
Mean Temperature 61 °F 65 °F  
Max Temperature 70 °F 79 °F 100 °F (1961)
Min Temperature 52 °F 52 °F 38 °F (1902)
Degree Days  
Heating Degree Days 4 2  
Month to date heating degree days 100 63  
Since 1 June heating degree days 100 63  
Since 1 July heating degree days 5346 5256  
Cooling Degree Days 0 3  
Month to date cooling degree days 15 34  
Year to date cooling degree days 33 57  
Since 1 June cooling degree days 15 34  
Growing Degree Days 12 (Base 50)    
Moisture  
Dew Point 39 °F    
Average Humidity 47    
Maximum Humidity 69    
Minimum Humidity 16    
Precipitation  
Precipitation T in 0.03 in 0.49 in (2016)
Month to date precipitation 1.24 0.73  
Year to date precipitation 9.27 7.14  
Snow  
Snow 0.00 in 0.00 in 0.00 in (2002)
Month to date snowfall T 0.0  
Year to date snowfall 5.9 7.7  
Since 1 July snowfall 7.6 15.2  
Snow Depth -    
Sea Level Pressure  
Sea Level Pressure 29.83 in    
Wind  
Wind Speed 23 mph (WSW)    
Max Wind Speed 35 mph    
Max Gust Speed 43 mph    
Visibility 10 miles    
Events Rain    
T = Trace of Precipitation, MM = Missing Value Source: NWS Daily Summary

Daily Weather History Graph

Daily Weather History Graph

Search for Another Location

Airport or City:

Trip Planner

Search our weather history database for the weather conditions in past years. The results will help you decide how hot, cold, wet, or windy it might be!

Date:

Astronomy

Jun. 18, 2012 Rise Set
Actual Time 5:05 AM PDT 8:47 PM PDT
Civil Twilight 4:27 AM PDT 9:26 PM PDT
Nautical Twilight 3:35 AM PDT 10:17 PM PDT
Astronomical Twilight 2:25 AM PDT 11:28 PM PDT
Moon 4:25 AM PDT (6/18) 8:08 PM PDT (6/18)
Length of Visible Light 16h 59m
Length of Day
15h 42m
Waning Crescent, 1% of the Moon is Illuminated
Jun 18
Waning Crescent
Jun 19
New
Jun 26
First Quarter
Jul 3
Full
Jul 10
Last Quarter

Hourly Weather History & Observations

Time (PDT) Temp. Dew Point Humidity Pressure Visibility Wind Dir Wind Speed Gust Speed Precip Events Conditions
12:53 AM 55.9 °F 46.0 °F 69% 29.78 in 10.0 mi WSW 10.4 mph - N/A   Clear
1:53 AM 55.9 °F 45.0 °F 67% 29.76 in 10.0 mi WSW 23.0 mph 28.8 mph N/A   Clear
2:53 AM 55.9 °F 44.1 °F 64% 29.78 in 10.0 mi WSW 17.3 mph 23.0 mph N/A   Mostly Cloudy
3:53 AM 54.0 °F 43.0 °F 66% 29.77 in 10.0 mi SW 9.2 mph - N/A   Partly Cloudy
4:53 AM 54.0 °F 43.0 °F 66% 29.77 in 10.0 mi WSW 13.8 mph 18.4 mph N/A   Mostly Cloudy
5:53 AM 54.0 °F 44.1 °F 69% 29.78 in 10.0 mi WSW 20.7 mph 31.1 mph N/A   Overcast
6:53 AM 55.9 °F 44.1 °F 64% 29.78 in 10.0 mi West 21.9 mph 28.8 mph N/A   Overcast
7:53 AM 57.0 °F 43.0 °F 59% 29.79 in 10.0 mi WSW 24.2 mph 33.4 mph N/A   Overcast
8:53 AM 60.1 °F 42.1 °F 51% 29.81 in 10.0 mi West 24.2 mph 31.1 mph N/A   Mostly Cloudy
9:53 AM 62.1 °F 39.9 °F 44% 29.81 in 10.0 mi West 29.9 mph 36.8 mph 0.00 in Rain Light Rain
10:53 AM 61.0 °F 39.0 °F 44% 29.83 in 10.0 mi West 31.1 mph 38.0 mph 0.00 in   Mostly Cloudy
11:53 AM 64.0 °F 39.0 °F 40% 29.84 in 10.0 mi WSW 24.2 mph 34.5 mph N/A   Mostly Cloudy
12:53 PM 66.0 °F 36.0 °F 33% 29.84 in 10.0 mi West 23.0 mph 32.2 mph N/A   Partly Cloudy
1:53 PM 64.9 °F 35.1 °F 33% 29.85 in 10.0 mi West 18.4 mph 29.9 mph N/A   Mostly Cloudy
2:53 PM 66.9 °F 34.0 °F 30% 29.84 in 10.0 mi West 26.5 mph 32.2 mph N/A   Overcast
3:53 PM 69.1 °F 34.0 °F 27% 29.84 in 10.0 mi West 28.8 mph 42.6 mph N/A   Partly Cloudy
4:53 PM 68.0 °F 32.0 °F 26% 29.84 in 10.0 mi WSW 24.2 mph 32.2 mph N/A   Clear
5:53 PM 66.0 °F 34.0 °F 30% 29.85 in 10.0 mi West 25.3 mph 34.5 mph N/A   Clear
6:53 PM 64.0 °F 35.1 °F 34% 29.86 in 10.0 mi West 27.6 mph 35.7 mph N/A   Partly Cloudy
7:53 PM 61.0 °F 37.0 °F 41% 29.87 in 10.0 mi West 28.8 mph 36.8 mph N/A   Mostly Cloudy
8:53 PM 57.9 °F 37.9 °F 47% 29.89 in 10.0 mi West 27.6 mph 34.5 mph N/A   Overcast
9:53 PM 55.9 °F 39.0 °F 53% 29.90 in 10.0 mi West 31.1 mph 40.3 mph N/A   Overcast
10:53 PM 54.0 °F 39.0 °F 57% 29.93 in 10.0 mi WSW 17.3 mph 28.8 mph N/A   Overcast
11:53 PM 54.0 °F 39.0 °F 57% 29.94 in 10.0 mi West 20.7 mph 31.1 mph N/A   Overcast